Simultaneous Nadir Overpasses (SNOs) Predictions

Prediction of SNOs between METOP-A and NOAA-19 Satellite Orbit:

Table of predicted SNOs for the next 14.0 days since TLE Epoch: 6/8/2018
Index Date (METOP-A) Time (METOP-A) Lat,Lon (METOP-A) SZA (METOP-A ) Date (NOAA-19) Time (NOAA-19) Lat,Lon (NOAA-19) SZA (NOAA-19 ) Distance(km) Time Diff (sec)
1 06/11/2018 01:32:52 78.58, 165.45 55.60 06/11/2018 01:31:42 78.56, 165.44 55.56 2.50 70
2 06/11/2018 02:23:34 -78.54, -27.45 124.46 06/11/2018 02:22:48 -78.57, -27.46 124.43 3.71 46
3 06/11/2018 03:14:14 78.56, 139.98 55.57 06/11/2018 03:13:43 78.55, 139.97 55.56 0.82 31
4 06/11/2018 04:04:55 -78.56, -52.68 124.44 06/11/2018 04:04:48 -78.53, -52.68 124.47 2.82 7
5 06/11/2018 04:55:36 78.54, 114.52 55.54 06/11/2018 04:55:44 78.54, 114.51 55.55 0.96 8
6 06/11/2018 05:46:17 -78.54, -78.15 124.47 06/11/2018 05:46:49 -78.53, -78.15 124.47 1.12 32
7 06/11/2018 06:36:58 78.52, 89.06 55.51 06/11/2018 06:37:45 78.54, 89.04 55.54 2.66 47
8 06/11/2018 07:27:39 -78.52,-103.61 124.50 06/11/2018 07:28:50 -78.52,-103.61 124.48 0.60 71
9 06/21/2018 21:41:51 78.59,-136.83 55.22 06/21/2018 21:40:36 78.63,-136.89 55.25 4.33 75
10 06/21/2018 22:32:32 -78.60, 30.54 124.78 06/21/2018 22:31:40 -78.61, 30.47 124.77 1.96 52
11 06/21/2018 23:23:12 78.61,-162.07 55.24 06/21/2018 23:22:36 78.59,-162.12 55.21 2.56 36
12 06/22/2018 00:13:54 -78.58, 5.08 124.80 06/22/2018 00:13:41 -78.60, 5.00 124.78 3.41 13
13 06/22/2018 01:04:34 78.59, 172.47 55.22 06/22/2018 01:04:37 78.58, 172.42 55.21 1.23 3
14 06/22/2018 01:55:16 -78.55, -20.39 124.83 06/22/2018 01:55:41 -78.56, -20.23 124.81 3.67 25
15 06/22/2018 02:45:56 78.56, 147.00 55.19 06/22/2018 02:46:38 78.57, 146.95 55.21 1.61 42
16 06/22/2018 03:36:37 -78.57, -45.62 124.80 06/22/2018 03:37:42 -78.56, -45.69 124.81 2.26 65




NCC Satellite Simultaneous Nadir Overpasses (SNOs) Prediction Service
